Location: Quedlinburg
(51.7921°N, 11.1414°E)
Time: 05:12:24
(UTC+02:00)

STRAND 1 - Pass Details

Date: 19 March 2026
Orbit: 761 x 775 km, 98.4° (Epoch: 16 April)

Event Time Altitude Azimuth Distance (km) Brightness Sun altitude
Rises 20:38:11 0° 2° (N) 3,242 ? -20.4°
Reaches altitude 10° 20:42:19 10° 329° (NNW) 2,308 ? -20.9°
Maximum altitude 20:43:44 11° 313° (NW) 2,225 ? -21.1°
Drops below altitude 10° 20:45:09 10° 296° (WNW) 2,304 ? -21.3°
Sets 20:49:15 0° 263° (W) 3,223 ? -21.9°
